Weather History for Foz do Iguacu, Brazil

Change the Weather History Date:

Thursday, February 6, 2014

  Actual Average Record
Temperature  
Mean Temperature 87 °F -  
Max Temperature 102 °F 87 °F 102 °F (2014)
Min Temperature 72 °F 67 °F 60 °F (2000)
Cooling Degree Days 22    
Growing Degree Days 37 (Base 50)    
Moisture  
Dew Point 67 °F    
Average Humidity 58    
Maximum Humidity 94    
Minimum Humidity 12    
Precipitation  
Precipitation 0.00 in - - ()
Sea Level Pressure  
Sea Level Pressure 29.86 in    
Wind  
Wind Speed 5 mph ()    
Max Wind Speed 9 mph    
Max Gust Speed -    
Visibility 8.0 miles    
Events      
Averages and records for this station are not official NWS values.
T = Trace of Precipitation, MM = Missing Value Source: Averaged Metar Reports

Daily Weather History Graph

Daily Weather History Graph

Search for Another Location

Airport:

Trip Planner

Search our weather history database for the weather conditions in past years. The results will help you decide how hot, cold, wet, or windy it might be!

Date:

Astronomy

Feb. 06, 2014 Rise Set
Actual Time 7:17 AM BRST 8:26 PM BRST
Civil Twilight 6:53 AM BRST 8:50 PM BRST
Nautical Twilight 6:24 AM BRST 9:19 PM BRST
Astronomical Twilight 5:54 AM BRST 9:48 PM BRST
Moon 1:58 PM BRST (2/6) 12:32 AM BRST (2/6)
Length of Visible Light 13h 57m
Length of Day
13h 08m
Waxing Crescent, 48% of the Moon is Illuminated
Feb 6
Waxing Crescent
Feb 6
First Quarter
Feb 14
Full
Feb 22
Last Quarter
Mar 1
New

Hourly Weather History & Observations

Time (BRST) Temp. Heat Index Dew Point Humidity Pressure Visibility Wind Dir Wind Speed Gust Speed Precip Events Conditions
12:00 AM 80.6 °F 83.9 °F 69.8 °F 70% 29.86 in - East 5.8 mph - N/A   Clear
1:00 AM 80.6 °F 83.2 °F 68.0 °F 65% 29.86 in - East 4.6 mph - N/A   Clear
2:00 AM 78.8 °F - 69.8 °F 74% 29.83 in - SE 6.9 mph - N/A   Clear
3:00 AM 75.2 °F - 71.6 °F 89% 29.83 in - SSE 3.5 mph - N/A   Clear
4:00 AM 74 °F - 71 °F 88% 29.78 in 12 mi SE 5.8 mph - -  
4:00 AM 73.4 °F - 71.6 °F 94% 29.83 in - SE 5.8 mph - N/A   Clear
5:00 AM 73.4 °F - 71.6 °F 94% 29.83 in - SSE 3.5 mph - N/A   Clear
6:00 AM 71.6 °F - 69.8 °F 94% 29.83 in - East 2.3 mph - N/A   Clear
7:00 AM 75.2 °F - 71.6 °F 89% 29.86 in - ESE 6.9 mph - N/A   Clear
8:00 AM 77.0 °F - 69.8 °F 78% 29.89 in - East 4.6 mph - N/A   Clear
9:00 AM 80.6 °F 83.9 °F 69.8 °F 70% 29.92 in - East 6.9 mph - N/A   Clear
10:00 AM 85 °F - 70 °F 52% 29.91 in 12 mi East 6.9 mph - -   Scattered Clouds
10:00 AM 86.0 °F 90.4 °F 69.8 °F 58% 29.95 in - East 6.9 mph - N/A   Clear
11:00 AM 89.6 °F 94.7 °F 69.8 °F 52% 29.92 in - ENE 5.8 mph - N/A   Clear
12:00 PM 95.0 °F 101.3 °F 69.8 °F 44% 29.92 in - NE 3.5 mph - N/A   Clear
1:00 PM 95.0 °F 101.3 °F 69.8 °F 44% 29.92 in 6.2 mi SSE 6.9 mph - N/A   Partly Cloudy
2:00 PM 93.2 °F 97.7 °F 68.0 °F 44% 29.92 in 6.2 mi South 5.8 mph - N/A   Scattered Clouds
3:00 PM 96.8 °F 99.0 °F 64.4 °F 34% 29.89 in 6.2 mi SSE 6.9 mph - N/A   Scattered Clouds
4:00 PM 102 °F - 54 °F 12% 29.81 in 12 mi NNW 6.9 mph - -   Partly Cloudy
4:00 PM 102.2 °F 100.4 °F 53.6 °F 20% 29.86 in 6.2 mi NNW 6.9 mph - N/A   Partly Cloudy
5:00 PM 102.2 °F 100.4 °F 53.6 °F 20% 29.83 in 6.2 mi North 9.2 mph - N/A   Scattered Clouds
6:00 PM 102.2 °F 101.4 °F 57.2 °F 22% 29.80 in 6.2 mi NW 8.1 mph - N/A   Scattered Clouds
7:00 PM 100.4 °F 101.3 °F 60.8 °F 27% 29.80 in 6.2 mi NW 8.1 mph - N/A   Partly Cloudy
8:00 PM 95.0 °F 97.0 °F 64.4 °F 36% 29.80 in 6.2 mi East 9.2 mph - N/A   Partly Cloudy
9:00 PM 89.6 °F 94.7 °F 69.8 °F 52% 29.83 in 6.2 mi East 6.9 mph - N/A   Partly Cloudy
10:00 PM 86 °F - 71 °F 53% 29.80 in 12 mi SE 8.1 mph - -  
10:00 PM 86.0 °F 91.8 °F 71.6 °F 62% 29.83 in - SE 8.1 mph - N/A   Clear
11:00 PM 80.6 °F 84.6 °F 71.6 °F 74% 29.86 in - SE 2.3 mph - N/A   Clear